Wind_Speed
32 38 50 53 52 39 25 22 25 25 16 22 36 53 51 47 49 53 55 55 55 52 43 38 29 25 27 31 34 31 33 30 31 31 32 28 28 26 25 23 23 25 24 25
19 46 44 39 32 36 41 31 23 23 21 17 27 38 39 36 38 43 46 46 45 44 37 31 28 26 27 28 29 27 28 30 33 27 30 30 30 26 27 26 26 21 26 25
17 17 36 37 32 29 25 25 35 30 24 24 27 41 42 44 43 43 44 43 42 40 38 32 29 29 29 26 24 24 27 27 25 31 30 27 26 27 28 27 22 20 25 23
21 25 21 16 29 37 34 26 23 20 21 25 32 27 47 51 52 50 49 46 44 40 38 36 33 33 34 30 26 25 24 24 23 28 31 27 25 26 24 25 22 18 17 18
34 7 10 28 22 21 26 22 32 19 30 27 24 15 73 19 38 45 44 44 41 38 39 40 36 27 23 24 24 27 22 23 21 21 23 22 22 20 23 20 17 13 16 19
30 24 16 15 15 17 12 11 16 20 23 13 29 25 60 38 48 44 37 33 27 23 17 17 23 26 22 24 25 23 21 21 19 18 20 19 20 19 16 14 12 15 18 18
9 24 24 20 15 13 16 13 3 4 7 12 15 24 58 6 5 11 12 6 8 9 11 15 18 27 23 19 22 22 18 19 18 16 17 17 16 14 14 14 15 17 16 15
1 5 19 13 19 19 18 21 11 6 5 6 26 21 30 31 43 35 31 25 13 16 9 11 16 20 20 19 16 21 19 20 17 15 16 13 14 14 14 15 15 15 13 14
5 5 8 11 11 10 11 19 24 16 24 6 21 37 47 14 14 23 22 15 20 17 14 14 14 11 15 11 10 13 15 16 15 14 12 13 13 14 13 12 13 11 11 13
4 3 7 9 11 13 14 11 15 16 5 5 8 22 29 12 35 25 17 14 13 10 14 13 10 10 10 13 12 12 12 14 13 12 11 13 12 11 10 11 10 10 10 12
6 7 7 10 12 11 12 19 15 13 23 4 3 10 18 16 24 20 17 20 18 14 15 13 10 10 11 13 13 12 13 13 11 11 12 11 10 11 10 10 9 10 10 10
4 5 9 18 17 17 18 15 16 17 13 32 13 14 11 15 12 10 18 18 16 13 14 15 10 10 14 15 13 13 12 11 11 11 10 9 10 9 9 8 9 9 10 7
9 5 7 11 4 4 10 22 26 24 21 25 8 12 18 7 14 15 18 7 11 14 16 15 10 11 13 14 15 13 12 11 10 10 8 9 9 8 8 8 8 8 8 6
14 10 9 7 15 16 24 13 21 22 19 22 42 32 40 22 21 18 17 17 15 14 17 14 11 13 15 16 13 12 11 10 9 9 9 10 10 10 9 7 7 8 7 7
14 14 15 20 21 19 20 22 25 23 25 18 30 34 50 41 25 18 16 16 18 23 18 14 12 16 17 15 14 13 11 9 9 9 10 11 9 7 6 6 7 8 7 8
18 20 16 20 24 19 24 26 25 36 31 30 27 38 38 38 27 20 19 18 19 27 20 15 13 18 16 14 12 11 10 8 8 11 11 8 6 5 6 7 8 8 8 9
23 18 10 16 16 18 24 29 34 36 32 25 23 32 36 36 23 21 17 17 20 31 21 15 16 17 14 13 11 10 9 8 9 10 10 6 3 3 6 7 7 8 7 8
25 18 11 16 20 6 11 13 28 30 27 22 21 27 31 29 29 19 16 15 18 29 20 15 19 17 16 13 13 12 9 10 10 10 9 6 4 2 5 8 7 6 7 7
12 17 14 7 9 18 10 5 8 13 24 18 19 30 23 25 19 16 19 19 26 26 19 18 16 14 13 12 13 10 10 11 9 11 10 7 5 3 4 6 6 6 7 7
12 17 24 10 4 4 5 3 8 13 18 14 25 21 24 22 16 18 24 27 29 24 21 19 16 14 13 15 13 10 9 10 9 13 10 8 5 6 5 5 5 6 6 6
2 11 26 24 9 10 9 13 9 12 10 14 17 20 23 28 22 22 22 29 32 30 24 21 14 9 13 13 11 9 10 10 13 14 10 8 8 8 6 4 4 5 7 8
6 7 4 10 8 5 11 8 12 12 9 12 23 17 17 21 22 26 27 43 34 30 27 21 17 13 11 12 10 9 10 11 15 15 13 10 10 9 7 6 4 0 6 11
9 17 8 3 7 6 10 16 11 9 14 12 28 22 22 19 19 29 25 37 28 29 25 20 15 13 11 10 10 8 9 11 13 15 14 11 10 9 7 7 7 8 6 6
16 17 14 10 16 17 17 11 15 23 14 21 30 23 21 22 22 21 29 40 24 29 27 20 18 15 12 11 10 9 8 10 13 13 14 11 9 8 6 5 5 4 6 6
17 15 20 11 16 12 20 18 11 15 15 34 37 21 21 21 23 26 28 30 28 24 28 23 18 15 12 11 10 9 8 9 12 12 11 11 9 7 5 4 5 4 3 5
15 16 18 16 16 13 14 15 12 22 29 31 28 26 25 25 21 17 35 41 38 20 29 27 22 17 14 11 10 8 8 8 10 10 10 9 7 5 4 3 3 3 3 8
Wind_Direction
216 213 216 219 224 221 234 238 252 252 264 268 260 262 266 269 266 265 266 268 268 268 273 267 270 272 275 274 271 279 264 271 267 262 268 272 287 282 284 281 280 281 287 286
214 226 222 228 233 236 236 242 239 242 235 244 258 259 262 259 257 258 261 262 262 268 260 267 264 271 283 279 272 274 258 269 267 262 263 266 279 279 281 281 280 290 293 285
241 226 233 240 238 236 239 249 251 256 249 231 266 271 258 259 262 261 258 261 261 259 258 257 262 272 271 274 279 276 264 266 270 262 257 272 276 276 283 285 285 273 272 268
253 239 235 227 235 238 247 239 249 252 261 262 260 288 274 262 260 259 259 259 260 262 260 264 267 274 277 267 270 265 265 266 278 255 262 268 275 280 275 276 276 278 269 261
243 207 235 242 238 228 251 251 246 255 249 269 259 263 269 280 267 263 261 260 265 266 267 264 264 272 267 265 264 263 261 266 262 260 257 269 276 276 276 279 273 260 260 270
240 241 246 241 233 226 230 230 242 233 241 246 243 228 274 268 267 272 274 272 268 262 274 264 251 254 260 266 265 255 258 256 255 260 265 270 273 274 275 267 257 261 267 270
247 239 247 254 250 224 229 230 210 188 206 229 242 217 232 316 253 241 252 252 234 229 248 248 251 249 255 258 263 240 252 248 255 265 265 266 262 259 252 252 260 263 267 276
89 214 232 238 238 241 242 225 208 183 183 225 226 232 244 256 248 257 266 279 275 265 249 242 245 251 250 250 246 245 245 245 258 265 260 249 252 250 256 259 256 265 272 276
242 228 166 194 180 208 212 219 226 254 291 265 225 248 256 224 245 238 253 253 300 272 229 236 253 241 217 219 218 223 229 245 257 251 241 251 249 260 255 255 266 269 267 275
260 277 262 258 238 247 244 213 205 211 224 238 254 254 236 236 236 269 276 254 272 251 234 229 217 200 211 205 221 227 227 245 233 238 245 252 258 256 257 262 264 262 270 273
255 249 235 267 255 259 229 239 230 223 230 223 290 256 261 246 243 269 257 281 264 256 223 221 201 215 209 213 225 236 237 224 236 244 253 251 252 257 258 256 260 265 258 254
282 276 261 283 286 258 242 239 223 227 219 239 272 267 256 208 218 283 306 254 243 228 210 216 204 228 217 218 229 216 212 226 236 245 242 250 253 246 239 239 246 245 239 238
317 268 318 341 64 222 237 228 233 246 248 257 238 238 225 235 269 274 337 273 234 216 203 211 213 229 209 207 201 210 222 229 235 233 243 249 236 214 222 226 228 225 228 211
290 263 247 250 281 290 290 249 222 226 239 248 245 263 239 259 274 266 296 343 194 209 207 211 219 211 191 190 203 218 224 226 226 237 235 221 203 201 213 222 223 214 217 209
260 269 280 288 300 280 271 258 230 242 244 252 253 253 249 257 273 286 300 314 220 196 205 206 214 198 192 200 206 214 215 212 228 235 213 199 198 208 223 217 212 211 206 198
258 272 272 281 292 291 275 258 237 229 246 257 264 257 251 261 270 291 282 287 220 201 201 209 219 202 202 207 207 211 203 211 218 206 198 185 183 220 213 208 198 199 196 185
260 256 284 276 290 295 292 241 216 218 237 253 253 257 261 252 263 291 282 278 217 207 199 219 210 196 202 200 208 197 197 206 198 198 168 138 142 180 191 179 182 195 193 186
242 248 263 277 291 251 261 216 210 218 227 256 252 252 252 257 261 287 281 260 207 207 196 209 189 192 191 199 193 186 194 189 187 161 155 130 140 168 177 171 175 177 188 190
245 237 237 246 253 282 238 178 186 202 212 219 231 243 247 247 257 264 261 247 194 200 192 182 188 195 199 193 178 182 185 182 165 148 127 128 133 127 147 155 160 168 187 195
247 236 231 238 277 292 213 85 227 207 200 206 216 233 229 231 221 242 249 233 194 182 177 172 184 186 194 181 167 174 178 171 155 144 136 141 148 121 129 149 152 159 167 187
308 221 225 238 252 266 295 279 222 182 197 198 202 219 218 210 222 240 238 187 183 170 163 168 166 157 171 164 158 160 173 150 154 148 139 142 157 130 122 137 184 204 205 218
349 323 250 231 234 271 344 156 177 200 212 166 184 147 176 193 208 215 205 191 173 168 158 167 166 159 152 151 149 146 161 155 161 146 139 139 137 122 118 107 76 213 215 213
357 7 329 4 347 355 6 29 84 116 180 134 158 147 145 184 199 192 182 172 191 183 174 169 168 165 152 145 146 144 157 166 174 155 144 145 133 129 129 124 94 70 96 164
3 3 3 5 2 8 15 85 114 145 129 137 154 141 144 183 188 190 190 186 203 196 178 172 166 169 157 147 151 156 152 161 182 166 155 149 140 138 150 152 124 89 100 123
348 351 353 347 358 3 24 46 107 120 147 105 143 140 154 178 175 190 184 202 196 183 177 177 167 164 160 155 156 162 151 159 178 169 172 158 151 145 156 168 188 187 155 131
352 354 340 335 343 348 15 26 50 57 137 91 112 159 168 184 185 158 175 185 199 200 180 178 172 162 158 164 166 156 157 159 179 172 174 172 161 155 150 156 194 172 137 120
Height
3033 3035 3028 3031 3039 3044 3047 3049 3052 3057 3062 3065 3063 3054 3058 3066 3067 3066 3066 3067 3068 3069 3073 3075 3077 3077 3078 3079 3079 3079 3079 3080 3080 3081 3081 3082 3082 3082 3081 3080 3081 3081 3081 3080
3027 3019 3030 3032 3037 3040 3043 3044 3048 3053 3059 3060 3055 3049 3047 3051 3052 3054 3055 3056 3057 3060 3063 3067 3069 3070 3070 3071 3071 3072 3073 3074 3074 3074 3075 3075 3076 3075 3074 3074 3075 3076 3076 3075
3021 3022 3027 3030 3033 3036 3038 3040 3046 3050 3053 3051 3051 3038 3038 3041 3043 3046 3046 3048 3048 3051 3054 3057 3061 3063 3064 3064 3065 3065 3067 3068 3068 3068 3068 3069 3069 3068 3068 3068 3069 3070 3072 3069
3018 3019 3020 3023 3026 3032 3031 3039 3043 3047 3051 3048 3053 3031 3029 3029 3027 3032 3036 3039 3040 3044 3047 3050 3053 3055 3056 3057 3058 3060 3061 3061 3061 3062 3062 3062 3063 3062 3062 3061 3062 3062 3062 3063
3013 3015 3016 3020 3022 3027 3027 3035 3039 3043 3046 3047 3046 3048 2996 3019 3016 3020 3026 3030 3032 3037 3040 3042 3045 3048 3048 3049 3051 3053 3055 3056 3056 3056 3056 3056 3056 3056 3056 3056 3057 3058 3058 3057
3007 3014 3015 3017 3020 3024 3028 3031 3033 3038 3042 3038 3036 3044 2990 3009 3010 3014 3020 3024 3027 3030 3032 3034 3038 3040 3042 3043 3045 3047 3049 3050 3051 3051 3051 3052 3052 3052 3052 3052 3054 3054 3054 3053
3005 3007 3009 3013 3016 3019 3023 3026 3028 3034 3035 3023 3027 3032 2990 3005 3006 3008 3013 3016 3020 3023 3026 3028 3030 3033 3035 3037 3038 3041 3044 3045 3046 3047 3047 3048 3048 3049 3050 3050 3050 3050 3050 3048
3003 3005 3004 3008 3010 3013 3015 3019 3019 3022 3023 3020 3025 3007 2992 2996 3004 3007 3011 3015 3018 3020 3021 3023 3024 3026 3028 3031 3033 3036 3039 3041 3042 3042 3043 3044 3045 3047 3047 3047 3047 3046 3046 3045
3002 3002 3003 3006 3006 3010 3011 3013 3018 3018 3017 3021 3008 2997 2994 2994 2998 3002 3007 3011 3013 3015 3017 3018 3020 3021 3024 3026 3029 3031 3034 3036 3037 3038 3040 3041 3042 3043 3043 3043 3043 3043 3043 3042
3002 3002 3001 3002 3004 3006 3008 3011 3015 3016 3016 3014 2998 2992 2982 2987 2996 3004 3005 3007 3008 3010 3013 3015 3017 3018 3020 3023 3026 3029 3031 3033 3034 3035 3037 3038 3039 3038 3039 3040 3039 3040 3039 3040
2999 3000 3001 3000 3001 3002 3005 3005 3009 3009 3009 3004 2999 2979 2980 2989 2998 2999 3000 3002 3002 3006 3010 3012 3014 3016 3018 3021 3024 3027 3028 3030 3031 3033 3034 3035 3035 3036 3036 3037 3037 3037 3038 3038
2998 2997 2996 2994 2994 2996 3000 3001 3003 3003 3002 2999 2996 2977 2981 2988 2995 2998 2998 2995 2998 3001 3006 3010 3012 3015 3017 3020 3023 3025 3026 3028 3029 3030 3032 3033 3033 3034 3034 3035 3036 3036 3036 3038
2998 2995 2993 2989 2990 2991 2993 2996 2998 2998 2999 2991 2995 2975 2982 2986 2990 2993 2993 2992 2996 3000 3004 3008 3011 3013 3015 3018 3021 3023 3025 3026 3028 3029 3030 3030 3031 3032 3033 3034 3035 3035 3036 3037
2996 2992 2992 2994 2995 2995 2992 2992 2993 2993 2992 2988 2975 2981 2971 2987 2988 2991 2991 2991 2994 3000 3004 3008 3010 3012 3014 3018 3020 3022 3023 3025 3026 3027 3028 3029 3030 3031 3032 3033 3033 3033 3035 3037
2992 2989 2989 2988 2988 2988 2986 2985 2985 2985 2985 2983 2977 2976 2974 2983 2988 2989 2991 2990 2994 2998 3003 3007 3009 3011 3014 3017 3019 3021 3022 3023 3025 3025 3026 3028 3028 3030 3031 3031 3031 3032 3034 3036
2987 2985 2984 2982 2983 2981 2979 2977 2977 2978 2978 2975 2975 2969 2979 2983 2985 2987 2988 2989 2992 2997 3002 3006 3009 3012 3014 3016 3018 3020 3021 3022 3023 3024 3025 3026 3028 3029 3029 3030 3031 3032 3034 3036
2982 2982 2984 2979 2980 2976 2968 2959 2963 2968 2972 2973 2973 2973 2976 2978 2982 2984 2985 2987 2990 2996 3001 3005 3008 3012 3014 3016 3017 3019 3020 3021 3022 3023 3023 3026 3027 3028 3029 3030 3031 3033 3035 3036
2975 2979 2982 2974 2974 2970 2956 2953 2958 2961 2967 2969 2970 2973 2975 2978 2982 2983 2983 2984 2987 2996 3000 3004 3008 3011 3013 3015 3017 3018 3020 3021 3022 3022 3024 3026 3028 3028 3029 3029 3031 3033 3035 3037
2970 2975 2976 2973 2968 2961 2958 2955 2955 2955 2960 2962 2966 2965 2972 2975 2979 2981 2981 2983 2986 2996 3000 3006 3009 3011 3013 3016 3017 3018 3019 3021 3021 3022 3025 3027 3028 3029 3030 3031 3032 3034 3036 3037
2968 2968 2970 2968 2966 2957 2955 2954 2954 2954 2956 2958 2960 2961 2966 2969 2974 2978 2978 2981 2989 2994 3000 3005 3008 3010 3013 3016 3016 3019 3020 3021 3021 3024 3026 3028 3029 3030 3031 3032 3033 3034 3036 3037
2965 2964 2962 2963 2964 2958 2953 2951 2952 2956 2958 2954 2956 2957 2961 2965 2971 2973 2975 2979 2988 2994 2998 3005 3009 3012 3014 3015 3017 3018 3020 3021 3023 3025 3027 3029 3031 3032 3033 3034 3034 3035 3036 3037
2965 2962 2959 2958 2958 2954 2951 2949 2951 2953 2952 2952 2955 2956 2957 2964 2967 2968 2971 2978 2984 2993 2997 3005 3010 3012 3014 3015 3017 3019 3020 3021 3024 3027 3029 3031 3032 3033 3034 3035 3034 3035 3035 3036
2967 2964 2960 2959 2955 2951 2946 2941 2944 2948 2950 2949 2952 2955 2957 2962 2966 2969 2974 2984 2989 2995 3000 3005 3010 3013 3014 3015 3018 3020 3021 3022 3026 3028 3030 3032 3033 3034 3035 3036 3036 3036 3035 3036
2969 2965 2961 2958 2954 2950 2943 2947 2939 2943 2946 2942 2949 2954 2959 2961 2965 2969 2980 2981 2991 2995 2999 3004 3009 3012 3013 3015 3018 3020 3021 3023 3027 3029 3031 3032 3034 3035 3036 3037 3038 3038 3038 3038
2972 2967 2963 2960 2956 2951 2947 2947 2948 2945 2942 2937 2950 2954 2957 2962 2965 2970 2977 2982 2984 2990 2994 3002 3008 3012 3014 3016 3018 3020 3022 3025 3028 3030 3032 3033 3035 3036 3037 3038 3039 3039 3039 3039
2972 2968 2966 2963 2959 2956 2954 2954 2952 2948 2951 2942 2951 2954 2957 2962 2962 2967 2973 2978 2985 2990 2995 3002 3006 3011 3014 3016 3019 3021 3023 3026 3029 3031 3033 3035 3036 3037 3038 3039 3040 3040 3041 3041